TimeMDT,TemperatureF,Dew PointF,Humidity,Sea Level PressureIn,VisibilityMPH,Wind Direction,Wind SpeedMPH,Gust SpeedMPH,PrecipitationIn,Events,Conditions,WindDirDegrees,DateUTC
12:15 AM,60.8,50.0,68,30.02,10.0,ESE,9.2,-,N/A,,Clear,120,2013-07-28 06:15:00
12:35 AM,60.8,50.0,68,30.02,10.0,ESE,9.2,-,N/A,,Clear,110,2013-07-28 06:35:00
12:55 AM,59.0,50.0,72,30.02,10.0,SSE,4.6,-,N/A,,Clear,150,2013-07-28 06:55:00
1:15 AM,59.0,50.0,72,30.01,10.0,East,6.9,-,N/A,,Clear,100,2013-07-28 07:15:00
1:35 AM,60.8,50.0,68,30.00,10.0,SE,8.1,-,N/A,,Clear,130,2013-07-28 07:35:00
1:55 AM,59.0,50.0,72,30.00,10.0,ESE,8.1,-,N/A,,Clear,110,2013-07-28 07:55:00
2:15 AM,60.8,50.0,68,30.00,10.0,ESE,5.8,-,N/A,,Clear,120,2013-07-28 08:15:00
2:35 AM,55.4,50.0,82,30.00,10.0,SE,4.6,-,N/A,,Clear,140,2013-07-28 08:35:00
2:55 AM,55.4,50.0,82,29.99,10.0,ESE,5.8,-,N/A,,Clear,120,2013-07-28 08:55:00
3:15 AM,59.0,50.0,72,29.99,10.0,ESE,5.8,-,N/A,,Clear,110,2013-07-28 09:15:00
3:35 AM,55.4,50.0,82,29.98,10.0,SE,4.6,-,N/A,,Clear,140,2013-07-28 09:35:00
3:55 AM,55.4,50.0,82,29.98,10.0,ESE,6.9,-,N/A,,Clear,120,2013-07-28 09:55:00
4:15 AM,57.2,50.0,77,29.98,10.0,SSE,3.5,-,N/A,,Clear,150,2013-07-28 10:15:00
4:35 AM,55.4,50.0,82,29.97,10.0,SSE,4.6,-,N/A,,Clear,150,2013-07-28 10:35:00
4:55 AM,55.4,50.0,82,29.97,10.0,SSE,6.9,-,N/A,,Clear,150,2013-07-28 10:55:00
5:15 AM,55.4,50.0,82,29.98,10.0,SSE,6.9,-,N/A,,Clear,150,2013-07-28 11:15:00
5:35 AM,53.6,50.0,88,29.98,10.0,SE,8.1,-,N/A,,Clear,130,2013-07-28 11:35:00
5:55 AM,53.6,50.0,88,29.98,10.0,ESE,9.2,-,N/A,,Clear,110,2013-07-28 11:55:00
6:15 AM,59.0,50.0,72,29.98,10.0,ESE,8.1,-,N/A,,Clear,110,2013-07-28 12:15:00
6:35 AM,59.0,51.8,77,29.97,10.0,SE,6.9,-,N/A,,Clear,130,2013-07-28 12:35:00
6:55 AM,59.0,51.8,77,29.97,10.0,SE,6.9,-,N/A,,Clear,140,2013-07-28 12:55:00
7:15 AM,62.6,51.8,68,29.97,10.0,ESE,10.4,-,N/A,,Clear,120,2013-07-28 13:15:00
7:35 AM,62.6,51.8,68,29.97,10.0,ESE,11.5,-,N/A,,Clear,120,2013-07-28 13:35:00
7:55 AM,62.6,51.8,68,29.98,10.0,ESE,11.5,-,N/A,,Clear,120,2013-07-28 13:55:00
8:15 AM,64.4,51.8,64,29.97,10.0,ESE,11.5,-,N/A,,Clear,120,2013-07-28 14:15:00
8:35 AM,64.4,51.8,64,29.97,10.0,ESE,11.5,-,N/A,,Clear,120,2013-07-28 14:35:00
8:55 AM,66.2,51.8,60,29.97,10.0,North,-9999.0,-,N/A,,Clear,0,2013-07-28 14:55:00
9:15 AM,66.2,51.8,60,29.97,10.0,North,-9999.0,-,N/A,,Clear,0,2013-07-28 15:15:00
9:35 AM,68.0,51.8,56,29.97,10.0,North,-9999.0,-,N/A,,Clear,0,2013-07-28 15:35:00
9:55 AM,68.0,51.8,56,29.96,10.0,SSE,11.5,-,N/A,,Clear,160,2013-07-28 15:55:00
10:15 AM,68.0,51.8,56,29.97,10.0,North,-9999.0,-,N/A,,Clear,0,2013-07-28 16:15:00
10:35 AM,68.0,51.8,56,29.97,10.0,North,-9999.0,-,N/A,,Clear,0,2013-07-28 16:35:00
10:55 AM,68.0,53.6,60,29.96,10.0,North,-9999.0,-,N/A,,Clear,0,2013-07-28 16:55:00
11:15 AM,68.0,51.8,56,29.97,10.0,North,-9999.0,-,N/A,,Clear,0,2013-07-28 17:15:00
11:35 AM,71.6,51.8,50,29.97,10.0,North,-9999.0,-,N/A,,Clear,0,2013-07-28 17:35:00
11:55 AM,71.6,51.8,50,29.96,10.0,North,-9999.0,-,N/A,,Clear,0,2013-07-28 17:55:00
12:15 PM,71.6,51.8,50,29.96,10.0,North,-9999.0,-,N/A,,Clear,0,2013-07-28 18:15:00
12:35 PM,73.4,51.8,47,29.96,10.0,SSE,12.7,-,N/A,,Clear,150,2013-07-28 18:35:00
12:55 PM,71.6,51.8,50,29.96,10.0,North,-9999.0,-,N/A,,Clear,0,2013-07-28 18:55:00
1:15 PM,73.4,51.8,47,29.95,10.0,SSE,13.8,-,N/A,,Clear,150,2013-07-28 19:15:00
1:35 PM,77.0,50.0,39,29.95,10.0,SE,12.7,19.6,N/A,,Clear,140,2013-07-28 19:35:00
1:55 PM,77.0,48.2,36,29.95,10.0,SSE,16.1,20.7,N/A,,Clear,150,2013-07-28 19:55:00
2:15 PM,77.0,50.0,39,29.94,10.0,North,-9999.0,-,N/A,,Clear,0,2013-07-28 20:15:00
2:35 PM,77.0,50.0,39,29.94,10.0,North,-9999.0,-,N/A,,Clear,0,2013-07-28 20:35:00
2:55 PM,77.0,50.0,39,29.94,10.0,ESE,11.5,19.6,N/A,,Clear,120,2013-07-28 20:55:00
3:15 PM,77.0,50.0,39,29.92,10.0,SE,13.8,21.9,N/A,,Clear,140,2013-07-28 21:15:00
3:35 PM,78.8,50.0,36,29.92,10.0,SE,11.5,-,N/A,,Clear,130,2013-07-28 21:35:00
3:55 PM,77.0,48.2,36,29.92,10.0,North,-9999.0,-,N/A,,Scattered Clouds,0,2013-07-28 21:55:00
4:15 PM,77.0,50.0,39,29.91,10.0,North,-9999.0,-,N/A,,Scattered Clouds,0,2013-07-28 22:15:00
4:35 PM,78.8,50.0,36,29.91,10.0,North,-9999.0,-,N/A,,Scattered Clouds,0,2013-07-28 22:35:00
4:55 PM,77.0,50.0,39,29.91,10.0,ESE,15.0,-,N/A,,Scattered Clouds,110,2013-07-28 22:55:00
5:15 PM,75.2,51.8,44,29.91,10.0,North,-9999.0,-,N/A,,Scattered Clouds,0,2013-07-28 23:15:00
5:35 PM,75.2,51.8,44,29.92,10.0,North,-9999.0,-,N/A,,Mostly Cloudy,0,2013-07-28 23:35:00
5:55 PM,73.4,53.6,50,29.92,10.0,ESE,17.3,-,N/A,,Overcast,120,2013-07-28 23:55:00
6:15 PM,71.6,53.6,53,29.91,10.0,ESE,18.4,24.2,N/A,,Overcast,110,2013-07-29 00:15:00
6:35 PM,71.6,51.8,50,29.91,10.0,ESE,17.3,21.9,N/A,,Mostly Cloudy,120,2013-07-29 00:35:00
6:55 PM,71.6,51.8,50,29.92,10.0,ESE,13.8,21.9,N/A,,Scattered Clouds,110,2013-07-29 00:55:00
7:15 PM,71.6,51.8,50,29.95,10.0,East,9.2,17.3,N/A,Thunderstorm,Mostly Cloudy,100,2013-07-29 01:15:00
7:35 PM,69.8,53.6,56,29.97,10.0,Calm,Calm,-,N/A,Rain,Light Rain,0,2013-07-29 01:35:00
7:55 PM,64.4,59.0,83,30.00,5.0,NW,6.9,-,N/A,Rain,Rain,310,2013-07-29 01:55:00
8:15 PM,60.8,55.4,82,30.00,7.0,NNW,9.2,-,0.04,Rain,Rain,340,2013-07-29 02:15:00
8:35 PM,59.0,55.4,88,29.99,10.0,North,5.8,-,0.06,Rain,Rain,360,2013-07-29 02:35:00
8:55 PM,60.8,57.2,88,29.97,7.0,East,3.5,-,0.08,Rain,Rain,100,2013-07-29 02:55:00
9:15 PM,60.8,57.2,88,29.98,10.0,North,6.9,-,N/A,Rain,Light Rain,10,2013-07-29 03:15:00
9:35 PM,62.6,57.2,82,29.98,10.0,North,-9999.0,-,N/A,Rain-Thunderstorm,Light Thunderstorms and Rain,0,2013-07-29 03:35:00
9:55 PM,60.8,57.2,88,29.98,10.0,SE,12.7,-,N/A,Rain,Light Rain,140,2013-07-29 03:55:00
10:15 PM,60.8,57.2,88,30.02,10.0,South,4.6,-,N/A,Rain,Light Rain,180,2013-07-29 04:15:00
10:35 PM,60.8,57.2,88,30.00,10.0,SSE,5.8,-,0.01,Rain,Light Rain,150,2013-07-29 04:35:00
10:55 PM,60.8,59.0,94,29.99,10.0,South,4.6,-,0.01,Rain,Light Rain,170,2013-07-29 04:55:00
11:15 PM,60.8,59.0,94,30.00,10.0,Calm,Calm,-,N/A,Rain,Light Rain,0,2013-07-29 05:15:00
11:35 PM,60.8,59.0,94,29.97,10.0,ESE,13.8,-,N/A,,Light Drizzle,120,2013-07-29 05:35:00
11:55 PM,60.8,59.0,94,29.93,10.0,ESE,23.0,29.9,N/A,Rain,Rain,120,2013-07-29 05:55:00